M I D A S
Marine Information and Data Acquisition System
Tripno 2238 of the Zeeleeuw from 2011-09-09 06:38:40 to 2011-09-09 13:12:56
Back to CruiseResearch ActivitiesStationsMapUnderway DataData graphs

EquipmentUnitsComments
TimeDGPSUTC
LatitudeDGPSDM.mWGS84
LongitudeDGPSDM.mWGS84
SpeedMeteo Stationm/sRelative wind speed
DirectionMeteo StationdegRelative wind direction
TemperatureMeteo Stationdeg CelciusAir temperature
PressureMeteo StationPaAtmospheric pressure
HumidityMeteo Station%Relative humidity
Missing or incorrect values are displayed as -999
Metereological data collected by the RV Zeeleeuw from 2011-09-09 06:28:33 to 2011-09-09 13:12:09
                                                                                    Next 1000 lines
Time Latitude Longitude Speed Direction Temperature Pressure Humidity
2011-09-09 06:28:44 51°13.635 2°56.019 -999 24 16.4 100990 45
2011-09-09 06:28:49 51°13.635 2°56.019 -999 45 16.4 100990 45
2011-09-09 06:28:53 51°13.635 2°56.019 -999 40 16.4 100990 45
2011-09-09 06:28:58 51°13.635 2°56.019 -999 33 16.4 100990 45
2011-09-09 06:29:04 51°13.635 2°56.018 -999 25 16.4 101000 45
2011-09-09 06:29:09 51°13.635 2°56.017 0.2 55 16.4 101000 45
2011-09-09 06:29:13 51°13.635 2°56.015 0.1 25 16.4 100990 45
2011-09-09 06:29:19 51°13.636 2°56.011 0.1 39 16.4 100990 45
2011-09-09 06:29:24 51°13.637 2°56.007 0.1 45 16.4 100990 45
2011-09-09 06:29:29 51°13.638 2°56.001 2 50 16.4 100990 45
2011-09-09 06:29:35 51°13.64 2°55.993 2.3 22 16.4 100990 45
2011-09-09 06:29:41 51°13.643 2°55.984 2.7 51 16.4 100990 45
2011-09-09 06:29:46 51°13.645 2°55.976 3.4 21 16.4 100990 44
2011-09-09 06:29:52 51°13.647 2°55.965 3.6 54 16.4 100990 44
2011-09-09 06:29:57 51°13.65 2°55.957 3.2 25 16.4 100990 47
2011-09-09 06:30:02 51°13.652 2°55.948 3.2 51 16.4 100990 47
2011-09-09 06:30:07 51°13.654 2°55.939 2.7 23 16.4 100990 44
2011-09-09 06:30:12 51°13.656 2°55.93 2.9 52 16.4 100990 44
2011-09-09 06:30:17 51°13.659 2°55.921 3.2 27 16.4 100990 45
2011-09-09 06:30:22 51°13.661 2°55.912 2.4 39 16.4 100990 45
2011-09-09 06:30:27 51°13.664 2°55.904 2.6 28 16.4 100990 47
2011-09-09 06:30:32 51°13.667 2°55.895 3.4 44 16.4 100990 47
2011-09-09 06:30:37 51°13.669 2°55.886 3.9 43 16.4 100990 44
2011-09-09 06:30:42 51°13.672 2°55.877 4 39 16.4 100990 44
2011-09-09 06:30:47 51°13.676 2°55.868 3.5 44 16.4 100990 47
2011-09-09 06:30:52 51°13.679 2°55.859 3.4 43 16.4 100990 47
2011-09-09 06:30:57 51°13.683 2°55.85 3 28 16.4 100990 45
2011-09-09 06:31:02 51°13.687 2°55.841 3 41 16.4 100990 45
2011-09-09 06:31:07 51°13.691 2°55.832 2.7 44 16.4 100990 46
2011-09-09 06:31:12 51°13.695 2°55.823 2.6 50 16.4 100990 46
2011-09-09 06:31:17 51°13.699 2°55.814 2.6 44 16.4 101000 46
2011-09-09 06:31:22 51°13.704 2°55.805 3.6 38 16.4 101000 46
2011-09-09 06:31:27 51°13.709 2°55.797 3.4 37 16.4 100990 45
2011-09-09 06:31:32 51°13.713 2°55.788 3.9 40 16.4 100990 45
2011-09-09 06:31:37 51°13.719 2°55.779 3 42 16.4 100990 44
2011-09-09 06:31:42 51°13.724 2°55.771 3.2 44 16.4 100990 44
2011-09-09 06:31:47 51°13.729 2°55.762 3.4 40 16.4 100990 45
2011-09-09 06:31:52 51°13.734 2°55.754 2.3 45 16.4 100990 45
2011-09-09 06:31:57 51°13.74 2°55.745 2.8 44 16.4 100990 45
2011-09-09 06:32:02 51°13.745 2°55.737 3 59 16.4 100990 45
2011-09-09 06:32:07 51°13.751 2°55.728 2.9 21 16.4 100990 45
2011-09-09 06:32:12 51°13.757 2°55.72 0.3 43 16.4 100990 45
2011-09-09 06:32:17 51°13.762 2°55.711 2.5 43 16.4 100990 45
2011-09-09 06:32:22 51°13.768 2°55.703 3.3 45 16.4 100990 45
2011-09-09 06:32:27 51°13.774 2°55.695 1.9 19 16.4 100990 46
2011-09-09 06:32:32 51°13.78 2°55.687 1.3 58 16.4 100990 46
2011-09-09 06:32:37 51°13.786 2°55.679 0.2 22 16.4 101000 45
2011-09-09 06:32:42 51°13.792 2°55.67 2.8 57 16.4 101000 45
2011-09-09 06:32:47 51°13.799 2°55.663 2.6 30 16.4 100990 46
2011-09-09 06:32:52 51°13.805 2°55.656 5 44 16.4 100990 46
2011-09-09 06:32:57 51°13.811 2°55.649 3.2 37 16.4 100990 45
2011-09-09 06:33:02 51°13.818 2°55.642 3.4 34 16.4 100990 45
2011-09-09 06:33:07 51°13.824 2°55.636 2.7 39 16.4 101000 45
2011-09-09 06:33:12 51°13.831 2°55.63 1 58 16.4 101000 45
2011-09-09 06:33:17 51°13.837 2°55.625 0.1 21 16.4 100990 47
2011-09-09 06:33:22 51°13.844 2°55.62 0.2 40 16.4 100990 47
2011-09-09 06:33:27 51°13.851 2°55.616 0.2 41 16.4 100990 47
2011-09-09 06:33:32 51°13.857 2°55.612 1.4 33 16.4 100990 47
2011-09-09 06:33:37 51°13.864 2°55.608 1.9 37 16.4 100990 46
2011-09-09 06:33:42 51°13.871 2°55.605 1.1 26 16.4 100990 46
2011-09-09 06:33:47 51°13.878 2°55.602 0.4 30 16.4 100990 45
2011-09-09 06:33:52 51°13.885 2°55.6 0.4 57 16.4 100990 45
2011-09-09 06:33:57 51°13.891 2°55.599 0.3 22 16.4 101000 45
2011-09-09 06:34:02 51°13.898 2°55.598 0.4 60 16.4 101000 45
2011-09-09 06:34:07 51°13.904 2°55.597 0.6 40 16.4 101000 45
2011-09-09 06:34:12 51°13.911 2°55.596 0.6 40 16.4 101000 45
2011-09-09 06:34:17 51°13.916 2°55.597 0.3 40 16.4 100990 45
2011-09-09 06:34:22 51°13.922 2°55.597 0.1 34 16.4 100990 45
2011-09-09 06:34:27 51°13.927 2°55.598 0.1 21 16.4 100990 46
2011-09-09 06:34:32 51°13.933 2°55.599 0.1 41 16.4 100990 46
2011-09-09 06:34:37 51°13.938 2°55.6 0.3 40 16.4 101000 45
2011-09-09 06:34:42 51°13.942 2°55.602 0.1 55 16.4 101000 45
2011-09-09 06:34:47 51°13.947 2°55.603 0.1 25 16.4 101000 46
2011-09-09 06:34:52 51°13.951 2°55.605 -999 36 16.4 101000 46
2011-09-09 06:34:57 51°13.955 2°55.607 -999 37 16.4 101000 45
2011-09-09 06:35:01 51°13.958 2°55.608 -999 30 16.4 101000 45
2011-09-09 06:35:06 51°13.962 2°55.61 -999 348 16.4 101000 45
2011-09-09 06:35:11 51°13.966 2°55.612 -999 357 16.4 101000 45
2011-09-09 06:35:16 51°13.968 2°55.614 0.5 353 16.4 101000 45
2011-09-09 06:35:21 51°13.971 2°55.616 0.5 2 16.4 101000 45
2011-09-09 06:35:25 51°13.972 2°55.617 0.5 2 16.4 101000 45
2011-09-09 06:35:30 51°13.974 2°55.617 1 352 16.4 101000 45
2011-09-09 06:35:35 51°13.974 2°55.617 1 346 16.4 101000 45
2011-09-09 06:35:40 51°13.975 2°55.616 0.7 333 16.4 101000 45
2011-09-09 06:35:45 51°13.975 2°55.615 0.7 331 16.4 101000 44
2011-09-09 06:35:50 51°13.974 2°55.613 2.2 324 16.4 101000 44
2011-09-09 06:35:55 51°13.974 2°55.611 2.1 321 16.4 101000 45
2011-09-09 06:36:00 51°13.974 2°55.608 2.8 307 16.4 101000 45
2011-09-09 06:36:05 51°13.974 2°55.605 2.2 319 16.4 100990 47
2011-09-09 06:36:09 51°13.974 2°55.602 2.6 307 16.4 100990 47
2011-09-09 06:36:14 51°13.974 2°55.598 2.9 29 16.4 101000 46
2011-09-09 06:36:20 51°13.975 2°55.592 2.5 310 16.4 101000 46
2011-09-09 06:36:25 51°13.976 2°55.587 2.2 28 16.4 100990 46
2011-09-09 06:36:29 51°13.977 2°55.583 3 306 16.4 100990 46
2011-09-09 06:36:35 51°13.978 2°55.577 2.3 22 16.4 100990 45
2011-09-09 06:36:40 51°13.98 2°55.572 1.4 305 16.4 100990 45
2011-09-09 06:36:45 51°13.983 2°55.566 2 21 16.4 100990 47
2011-09-09 06:36:49 51°13.985 2°55.562 1.5 310 16.4 100990 47
2011-09-09 06:36:54 51°13.988 2°55.557 1.3 22 16.4 100990 45
2011-09-09 06:36:59 51°13.992 2°55.553 0.2 306 16.4 100990 45
2011-09-09 06:37:04 51°13.995 2°55.548 0.1 23 16.4 100990 47
2011-09-09 06:37:09 51°14 2°55.544 0.1 306 16.4 100990 47
2011-09-09 06:37:13 51°14.003 2°55.541 -999 24 16.3 100990 45
2011-09-09 06:37:19 51°14.009 2°55.536 -999 305 16.3 100990 45
2011-09-09 06:37:24 51°14.014 2°55.532 1.5 22 16.4 100990 46
2011-09-09 06:37:29 51°14.019 2°55.527 1.1 307 16.4 100990 46
2011-09-09 06:37:34 51°14.024 2°55.523 2.5 24 16.4 100990 46
2011-09-09 06:37:39 51°14.03 2°55.518 2.1 308 16.4 100990 46
2011-09-09 06:37:44 51°14.036 2°55.513 1.3 29 16.4 100990 45
2011-09-09 06:37:49 51°14.042 2°55.509 1.9 301 16.4 100990 45
2011-09-09 06:37:53 51°14.046 2°55.505 1.1 318 16.4 100990 45
2011-09-09 06:37:58 51°14.053 2°55.5 2.8 301 16.4 100990 45
2011-09-09 06:38:04 51°14.061 2°55.494 3.2 28 16.4 100990 47
2011-09-09 06:38:09 51°14.067 2°55.489 2.1 309 16.4 100990 47
2011-09-09 06:38:14 51°14.073 2°55.483 2.3 21 16.4 100990 47
2011-09-09 06:38:19 51°14.08 2°55.478 0.8 302 16.4 100990 47
2011-09-09 06:38:24 51°14.086 2°55.472 2.6 23 16.4 100990 45
2011-09-09 06:38:29 51°14.093 2°55.467 2.9 302 16.4 100990 45
2011-09-09 06:38:34 51°14.1 2°55.461 0.5 316 16.4 101000 46
2011-09-09 06:38:39 51°14.107 2°55.455 0.1 305 16.4 101000 46
2011-09-09 06:38:44 51°14.114 2°55.449 0.1 24 16.4 101000 45
2011-09-09 06:38:49 51°14.122 2°55.444 -999 305 16.4 101000 45
2011-09-09 06:38:54 51°14.13 2°55.438 -999 323 16.4 101000 44
2011-09-09 06:38:59 51°14.137 2°55.431 0.1 305 16.4 101000 44
2011-09-09 06:39:04 51°14.145 2°55.425 0.1 319 16.4 100990 45
2011-09-09 06:39:09 51°14.152 2°55.419 0.1 306 16.4 100990 45
2011-09-09 06:39:13 51°14.158 2°55.413 0.1 326 16.4 101000 45
2011-09-09 06:39:19 51°14.167 2°55.405 -999 300 16.4 101000 45
2011-09-09 06:39:24 51°14.175 2°55.398 -999 322 16.4 101000 45
2011-09-09 06:39:29 51°14.183 2°55.39 0.3 287 16.4 101000 45
2011-09-09 06:39:34 51°14.192 2°55.383 2.6 324 16.4 101000 45
2011-09-09 06:39:39 51°14.2 2°55.376 3.8 310 16.4 101000 45
2011-09-09 06:39:44 51°14.208 2°55.368 4.3 20 16.4 100990 46
2011-09-09 06:39:49 51°14.217 2°55.36 4.8 307 16.4 100990 46
2011-09-09 06:39:53 51°14.224 2°55.354 5 24 16.4 100990 45
2011-09-09 06:39:59 51°14.235 2°55.344 4.3 309 16.4 100990 45
2011-09-09 06:40:04 51°14.244 2°55.336 4.1 29 16.4 100990 46
2011-09-09 06:40:09 51°14.252 2°55.328 3.4 305 16.4 100990 46
2011-09-09 06:40:14 51°14.261 2°55.319 4.2 21 16.4 100990 45
2011-09-09 06:40:19 51°14.27 2°55.311 4.9 307 16.4 100990 45
2011-09-09 06:40:24 51°14.279 2°55.303 4.3 28 16.4 100990 47
2011-09-09 06:40:29 51°14.288 2°55.294 4.3 279 16.4 100990 47
2011-09-09 06:40:34 51°14.297 2°55.286 4 22 16.4 100990 46
2011-09-09 06:40:39 51°14.307 2°55.277 4.1 306 16.4 100990 46
2011-09-09 06:40:44 51°14.317 2°55.268 3.9 21 16.4 100990 45
2011-09-09 06:40:49 51°14.327 2°55.259 5.3 305 16.4 100990 45
2011-09-09 06:40:54 51°14.338 2°55.249 4.6 22 16.4 100990 45
2011-09-09 06:40:59 51°14.349 2°55.239 5.2 301 16.4 100990 45
2011-09-09 06:41:04 51°14.36 2°55.228 4.3 28 16.4 100990 45
2011-09-09 06:41:09 51°14.372 2°55.218 4.7 304 16.4 100990 45
2011-09-09 06:41:13 51°14.381 2°55.209 4.4 26 16.4 100990 46
2011-09-09 06:41:19 51°14.395 2°55.195 6.6 302 16.4 100990 46
2011-09-09 06:41:24 51°14.407 2°55.183 4.6 21 16.4 100980 45
2011-09-09 06:41:29 51°14.419 2°55.171 5.2 284 16.4 100980 45
2011-09-09 06:41:33 51°14.429 2°55.161 5.9 23 16.4 100990 45
2011-09-09 06:41:39 51°14.443 2°55.146 7.4 302 16.4 100990 45
2011-09-09 06:41:44 51°14.456 2°55.133 6.1 21 16.4 100980 45
2011-09-09 06:41:49 51°14.468 2°55.12 5.8 302 16.4 100980 45
2011-09-09 06:41:53 51°14.478 2°55.109 7.1 28 16.4 100980 45
2011-09-09 06:41:59 51°14.493 2°55.092 7.4 301 16.4 100980 45
2011-09-09 06:42:04 51°14.505 2°55.077 6.9 24 16.4 100980 45
2011-09-09 06:42:09 51°14.518 2°55.062 6.5 304 16.4 100980 45
2011-09-09 06:42:13 51°14.529 2°55.05 5.7 29 16.4 100980 45
2011-09-09 06:42:19 51°14.543 2°55.03 6.7 305 16.4 100980 45
2011-09-09 06:42:24 51°14.556 2°55.014 8.3 22 16.4 100980 45
2011-09-09 06:42:29 51°14.57 2°54.999 6.8 282 16.4 100980 45
2011-09-09 06:42:33 51°14.581 2°54.986 6.1 20 16.4 100980 45
2011-09-09 06:42:39 51°14.597 2°54.966 7.3 303 16.4 100980 45
2011-09-09 06:42:44 51°14.611 2°54.95 7 24 16.4 100970 45
2011-09-09 06:42:49 51°14.624 2°54.933 6.7 301 16.4 100970 45
2011-09-09 06:42:53 51°14.635 2°54.919 6.2 28 16.4 100970 46
2011-09-09 06:42:59 51°14.652 2°54.9 8.6 310 16.4 100970 46
2011-09-09 06:43:04 51°14.665 2°54.882 7.3 24 16.4 100970 45
2011-09-09 06:43:09 51°14.678 2°54.865 7.4 303 16.4 100970 45
2011-09-09 06:43:13 51°14.689 2°54.852 6.6 24 16.4 100970 46
2011-09-09 06:43:19 51°14.706 2°54.832 8.2 308 16.4 100970 46
2011-09-09 06:43:24 51°14.72 2°54.814 6.8 22 16.4 100970 45
2011-09-09 06:43:29 51°14.733 2°54.796 7.3 285 16.4 100970 45
2011-09-09 06:43:33 51°14.744 2°54.782 6.8 26 16.4 100970 45
2011-09-09 06:43:39 51°14.76 2°54.761 6.7 303 16.4 100970 45
2011-09-09 06:43:44 51°14.773 2°54.743 8.5 21 16.4 100970 45
2011-09-09 06:43:49 51°14.786 2°54.726 7.1 304 16.4 100970 45
2011-09-09 06:43:53 51°14.798 2°54.713 8.4 29 16.4 100970 46
2011-09-09 06:43:59 51°14.814 2°54.692 7.7 310 16.4 100970 46
2011-09-09 06:44:04 51°14.827 2°54.676 7 26 16.5 100970 46
2011-09-09 06:44:09 51°14.842 2°54.661 8.2 308 16.5 100970 46
2011-09-09 06:44:13 51°14.853 2°54.648 6.3 24 16.5 100970 44
2011-09-09 06:44:18 51°14.867 2°54.632 8.7 305 16.5 100970 44
2011-09-09 06:44:24 51°14.884 2°54.612 6.6 23 16.5 100970 46
2011-09-09 06:44:29 51°14.898 2°54.595 7.2 284 16.5 100970 46
2011-09-09 06:44:33 51°14.908 2°54.581 6.6 21 16.5 100980 45
2011-09-09 06:44:39 51°14.925 2°54.562 7.5 306 16.5 100980 45
2011-09-09 06:44:44 51°14.938 2°54.545 7.7 29 16.5 100970 45
2011-09-09 06:44:49 51°14.952 2°54.527 8.4 303 16.5 100970 45
2011-09-09 06:44:53 51°14.963 2°54.514 7.4 26 16.5 100970 46
2011-09-09 06:44:59 51°14.978 2°54.493 7.3 302 16.5 100970 46
2011-09-09 06:45:04 51°14.992 2°54.476 7.2 25 16.5 100980 46
2011-09-09 06:45:09 51°15.005 2°54.458 6.4 306 16.5 100980 46
2011-09-09 06:45:14 51°15.018 2°54.441 5.8 25 16.5 100970 45
2011-09-09 06:45:19 51°15.031 2°54.423 6.8 303 16.5 100970 45
2011-09-09 06:45:23 51°15.041 2°54.409 7.2 27 16.5 100970 46
2011-09-09 06:45:29 51°15.057 2°54.388 8.1 283 16.5 100970 46
2011-09-09 06:45:33 51°15.067 2°54.373 7.8 21 16.5 100970 46
2011-09-09 06:45:39 51°15.083 2°54.353 5 308 16.5 100970 46
2011-09-09 06:45:44 51°15.097 2°54.337 6 21 16.5 100970 46
2011-09-09 06:45:49 51°15.11 2°54.321 7.6 309 16.5 100970 46
2011-09-09 06:45:53 51°15.121 2°54.307 7 25 16.5 100970 45
2011-09-09 06:45:59 51°15.137 2°54.286 6.5 302 16.5 100970 45
2011-09-09 06:46:04 51°15.15 2°54.27 7 23 16.5 100980 46
2011-09-09 06:46:09 51°15.163 2°54.252 7.3 310 16.5 100980 46
2011-09-09 06:46:13 51°15.174 2°54.239 7.4 19 16.5 100970 46
2011-09-09 06:46:19 51°15.19 2°54.219 8.3 310 16.5 100970 46
2011-09-09 06:46:24 51°15.204 2°54.203 7.8 22 16.5 100970 46
2011-09-09 06:46:29 51°15.217 2°54.186 7.3 285 16.5 100970 46
2011-09-09 06:46:33 51°15.228 2°54.173 7.1 21 16.5 100970 46
2011-09-09 06:46:39 51°15.244 2°54.153 7.9 306 16.5 100970 46
2011-09-09 06:46:44 51°15.257 2°54.135 7.9 22 16.5 100970 45
2011-09-09 06:46:49 51°15.271 2°54.119 7.5 306 16.5 100970 45
2011-09-09 06:46:53 51°15.282 2°54.105 8.8 28 16.6 100960 45
2011-09-09 06:46:58 51°15.295 2°54.088 7.7 308 16.6 100960 45
2011-09-09 06:47:03 51°15.309 2°54.071 6.4 25 16.6 100970 46
2011-09-09 06:47:09 51°15.325 2°54.051 6.9 307 16.6 100970 46
2011-09-09 06:47:13 51°15.335 2°54.038 7.2 27 16.6 100970 45
2011-09-09 06:47:19 51°15.351 2°54.017 6.4 302 16.6 100970 45
2011-09-09 06:47:24 51°15.365 2°54 5.9 27 16.6 100970 46
2011-09-09 06:47:29 51°15.378 2°53.983 6.8 310 16.6 100970 46
2011-09-09 06:47:33 51°15.389 2°53.969 7.5 22 16.6 100960 45
2011-09-09 06:47:39 51°15.405 2°53.949 6.6 309 16.6 100960 45
2011-09-09 06:47:44 51°15.419 2°53.933 8.6 21 16.6 100970 45
2011-09-09 06:47:49 51°15.432 2°53.916 8.7 304 16.6 100970 45
2011-09-09 06:47:54 51°15.446 2°53.9 7.3 20 16.6 100970 46
2011-09-09 06:47:59 51°15.46 2°53.884 8 306 16.6 100970 46
2011-09-09 06:48:04 51°15.474 2°53.868 8.2 23 16.6 100970 46
2011-09-09 06:48:09 51°15.488 2°53.852 8 301 16.6 100970 46
2011-09-09 06:48:13 51°15.499 2°53.838 7.4 22 16.6 100970 45
2011-09-09 06:48:19 51°15.516 2°53.819 8.9 303 16.6 100970 45
2011-09-09 06:48:24 51°15.529 2°53.802 7.1 20 16.6 100970 46
2011-09-09 06:48:29 51°15.542 2°53.785 8.3 306 16.6 100970 46
2011-09-09 06:48:33 51°15.553 2°53.772 8 22 16.6 100970 46
2011-09-09 06:48:39 51°15.57 2°53.752 7.2 304 16.6 100970 46
2011-09-09 06:48:44 51°15.583 2°53.735 7.2 26 16.6 100970 45
2011-09-09 06:48:49 51°15.597 2°53.719 7.4 304 16.6 100970 45
2011-09-09 06:48:53 51°15.608 2°53.706 7 23 16.6 100960 46
2011-09-09 06:48:59 51°15.624 2°53.687 7.8 307 16.6 100960 46
2011-09-09 06:49:04 51°15.637 2°53.67 7.5 22 16.6 100970 45
2011-09-09 06:49:09 51°15.652 2°53.655 6.8 309 16.6 100970 45
2011-09-09 06:49:13 51°15.663 2°53.641 6.6 25 16.6 100960 45
2011-09-09 06:49:19 51°15.68 2°53.624 6.9 306 16.6 100960 45
2011-09-09 06:49:23 51°15.691 2°53.611 6.6 26 16.6 100960 46
2011-09-09 06:49:29 51°15.708 2°53.593 8.2 303 16.6 100960 46
2011-09-09 06:49:33 51°15.719 2°53.581 7.2 27 16.6 100970 45
2011-09-09 06:49:39 51°15.737 2°53.564 6.9 309 16.6 100970 45
2011-09-09 06:49:44 51°15.751 2°53.549 8.2 21 16.6 100970 46
2011-09-09 06:49:49 51°15.765 2°53.535 8.3 309 16.6 100970 46
2011-09-09 06:49:53 51°15.777 2°53.523 7.1 25 16.6 100970 45
2011-09-09 06:49:59 51°15.794 2°53.505 6.1 304 16.6 100970 45
2011-09-09 06:50:04 51°15.809 2°53.49 6.8 26 16.6 100970 45
2011-09-09 06:50:09 51°15.823 2°53.476 5.8 308 16.6 100970 45
2011-09-09 06:50:14 51°15.838 2°53.463 6.1 26 16.6 100970 46
2011-09-09 06:50:19 51°15.852 2°53.45 6.9 303 16.6 100970 46
2011-09-09 06:50:24 51°15.868 2°53.437 6.3 27 16.6 100970 46
2011-09-09 06:50:29 51°15.883 2°53.425 5.6 308 16.6 100970 46
2011-09-09 06:50:33 51°15.895 2°53.417 6.1 27 16.6 100970 46
2011-09-09 06:50:39 51°15.914 2°53.404 6.2 302 16.6 100970 46
2011-09-09 06:50:44 51°15.93 2°53.394 5.5 19 16.6 100970 45
2011-09-09 06:50:49 51°15.945 2°53.383 7.5 306 16.6 100970 45
2011-09-09 06:50:53 51°15.958 2°53.375 6.2 26 16.6 100970 46
2011-09-09 06:50:59 51°15.976 2°53.362 6.1 307 16.6 100970 46
2011-09-09 06:51:04 51°15.992 2°53.352 7 22 16.6 100970 45
2011-09-09 06:51:09 51°16.007 2°53.34 6.3 306 16.6 100970 45
2011-09-09 06:51:13 51°16.019 2°53.331 6.4 29 16.6 100970 46
2011-09-09 06:51:19 51°16.037 2°53.316 6.4 310 16.6 100970 46
2011-09-09 06:51:24 51°16.052 2°53.303 6.1 19 16.6 100970 46
2011-09-09 06:51:29 51°16.067 2°53.29 6.1 310 16.6 100970 46
2011-09-09 06:51:33 51°16.079 2°53.279 6.3 26 16.6 100980 45
2011-09-09 06:51:39 51°16.096 2°53.264 6.6 305 16.6 100980 45
2011-09-09 06:51:44 51°16.111 2°53.252 6.2 27 16.6 100970 45
2011-09-09 06:51:49 51°16.126 2°53.239 6.6 302 16.6 100970 45
2011-09-09 06:51:54 51°16.141 2°53.227 5.9 22 16.7 100970 45
2011-09-09 06:51:59 51°16.156 2°53.214 8.1 310 16.7 100970 45
2011-09-09 06:52:03 51°16.168 2°53.204 7.4 24 16.7 100970 46
2011-09-09 06:52:09 51°16.185 2°53.188 6.2 307 16.7 100970 46
2011-09-09 06:52:13 51°16.197 2°53.178 6.6 29 16.7 100980 44
2011-09-09 06:52:19 51°16.215 2°53.163 7.4 304 16.7 100980 44
2011-09-09 06:52:24 51°16.23 2°53.151 7.2 29 16.7 100970 46
2011-09-09 06:52:29 51°16.245 2°53.138 7 303 16.7 100970 46
2011-09-09 06:52:34 51°16.26 2°53.126 7.1 24 16.7 100970 45
2011-09-09 06:52:39 51°16.275 2°53.114 8 309 16.7 100970 45
2011-09-09 06:52:44 51°16.29 2°53.103 7.6 19 16.7 100970 46
2011-09-09 06:52:49 51°16.305 2°53.092 6.6 302 16.7 100970 46
2011-09-09 06:52:54 51°16.321 2°53.082 7.4 26 16.7 100970 45
2011-09-09 06:52:59 51°16.337 2°53.072 6.4 306 16.7 100970 45
2011-09-09 06:53:04 51°16.353 2°53.062 7.9 23 16.6 100970 46
2011-09-09 06:53:09 51°16.368 2°53.052 7.8 303 16.6 100970 46
2011-09-09 06:53:13 51°16.38 2°53.044 7.9 24 16.6 100970 45
2011-09-09 06:53:19 51°16.399 2°53.033 7.5 305 16.6 100970 45
2011-09-09 06:53:24 51°16.415 2°53.024 6.2 27 16.6 100960 45
2011-09-09 06:53:29 51°16.431 2°53.014 7.6 306 16.6 100960 45
2011-09-09 06:53:33 51°16.443 2°53.006 7.1 28 16.6 100970 46
2011-09-09 06:53:38 51°16.459 2°52.997 6.4 301 16.6 100970 46
2011-09-09 06:53:44 51°16.478 2°52.985 6.1 25 16.6 100970 46
2011-09-09 06:53:49 51°16.493 2°52.975 7.2 302 16.6 100970 46
2011-09-09 06:53:53 51°16.506 2°52.967 7.1 26 16.6 100970 45
2011-09-09 06:53:59 51°16.525 2°52.956 7.3 303 16.6 100970 45
2011-09-09 06:54:04 51°16.54 2°52.946 7.1 23 16.6 100970 45
2011-09-09 06:54:09 51°16.556 2°52.936 7.2 302 16.6 100970 45
2011-09-09 06:54:13 51°16.568 2°52.927 8.4 21 16.6 100970 46
2011-09-09 06:54:19 51°16.586 2°52.914 7.7 304 16.6 100970 46
2011-09-09 06:54:24 51°16.602 2°52.903 8.4 22 16.6 100970 46
2011-09-09 06:54:29 51°16.617 2°52.891 8.9 305 16.6 100970 46
2011-09-09 06:54:34 51°16.631 2°52.878 7.2 24 16.6 100970 46
2011-09-09 06:54:39 51°16.646 2°52.866 7.5 308 16.6 100970 46
2011-09-09 06:54:43 51°16.658 2°52.856 7.4 23 16.6 100960 45
2011-09-09 06:54:49 51°16.676 2°52.841 8.2 308 16.6 100960 45
2011-09-09 06:54:53 51°16.687 2°52.831 7.6 26 16.6 100960 45
2011-09-09 06:54:59 51°16.705 2°52.817 7.3 309 16.6 100960 45
2011-09-09 06:55:04 51°16.72 2°52.805 7.6 26 16.6 100960 45
2011-09-09 06:55:09 51°16.736 2°52.794 6.9 304 16.6 100960 45
2011-09-09 06:55:13 51°16.748 2°52.786 6.8 26 16.6 100960 46
2011-09-09 06:55:19 51°16.766 2°52.774 6.8 303 16.6 100960 46
2011-09-09 06:55:24 51°16.781 2°52.764 6.6 21 16.6 100970 45
2011-09-09 06:55:29 51°16.797 2°52.755 6.6 303 16.6 100970 45
2011-09-09 06:55:33 51°16.809 2°52.746 5.5 28 16.6 100960 45
2011-09-09 06:55:38 51°16.824 2°52.736 8.1 307 16.6 100960 45
2011-09-09 06:55:44 51°16.842 2°52.723 6.9 24 16.6 100970 45
2011-09-09 06:55:49 51°16.857 2°52.713 7.7 307 16.6 100970 45
2011-09-09 06:55:53 51°16.869 2°52.704 8.1 21 16.6 100970 45
2011-09-09 06:55:59 51°16.887 2°52.692 6.2 304 16.6 100970 45
2011-09-09 06:56:04 51°16.902 2°52.681 6.7 21 16.6 100970 45
2011-09-09 06:56:09 51°16.917 2°52.671 7 308 16.6 100970 45
2011-09-09 06:56:13 51°16.929 2°52.663 7.4 23 16.6 100960 45
2011-09-09 06:56:18 51°16.945 2°52.653 6.5 301 16.6 100960 45
2011-09-09 06:56:24 51°16.963 2°52.642 8.4 26 16.6 100970 46
2011-09-09 06:56:29 51°16.978 2°52.632 6.6 302 16.6 100970 46
2011-09-09 06:56:33 51°16.991 2°52.624 6.7 28 16.6 100970 45
2011-09-09 06:56:39 51°17.009 2°52.611 6.1 306 16.6 100970 45
2011-09-09 06:56:44 51°17.024 2°52.602 6.9 22 16.7 100960 46
2011-09-09 06:56:49 51°17.039 2°52.592 7.8 309 16.7 100960 46
2011-09-09 06:56:53 51°17.051 2°52.583 7.2 20 16.6 100960 46
2011-09-09 06:56:59 51°17.069 2°52.57 7.2 302 16.6 100960 46
2011-09-09 06:57:04 51°17.084 2°52.558 7.1 23 16.6 100960 45
2011-09-09 06:57:09 51°17.098 2°52.547 7.2 302 16.6 100960 45
2011-09-09 06:57:13 51°17.11 2°52.538 8.2 24 16.6 100960 46
2011-09-09 06:57:19 51°17.128 2°52.524 9.7 309 16.6 100960 46
2011-09-09 06:57:24 51°17.143 2°52.513 7.7 20 16.6 100970 45
2011-09-09 06:57:29 51°17.158 2°52.502 6.6 281 16.6 100970 45
2011-09-09 06:57:33 51°17.17 2°52.493 6.8 22 16.6 100960 44
2011-09-09 06:57:39 51°17.188 2°52.48 7.7 302 16.6 100960 44
2011-09-09 06:57:44 51°17.203 2°52.47 7.1 25 16.6 100960 46
2011-09-09 06:57:49 51°17.218 2°52.459 8.1 301 16.6 100960 46
2011-09-09 06:57:53 51°17.23 2°52.451 6.4 24 16.6 100960 46
2011-09-09 06:57:59 51°17.248 2°52.438 7.6 308 16.6 100960 46
2011-09-09 06:58:04 51°17.263 2°52.426 7.1 20 16.6 100970 46
2011-09-09 06:58:09 51°17.278 2°52.414 6.1 304 16.6 100970 46
2011-09-09 06:58:13 51°17.29 2°52.404 7.6 22 16.6 100960 46
2011-09-09 06:58:19 51°17.307 2°52.389 8.1 304 16.6 100960 46
2011-09-09 06:58:24 51°17.322 2°52.377 8.4 23 16.6 100960 46
2011-09-09 06:58:29 51°17.336 2°52.364 7.3 306 16.6 100960 46
2011-09-09 06:58:33 51°17.347 2°52.353 7 25 16.6 100960 46
2011-09-09 06:58:39 51°17.365 2°52.338 8.4 304 16.6 100960 46
2011-09-09 06:58:44 51°17.379 2°52.325 9.6 27 16.6 100960 45
2011-09-09 06:58:49 51°17.394 2°52.311 7.2 304 16.6 100960 45
2011-09-09 06:58:53 51°17.405 2°52.3 7.3 28 16.6 100960 46
2011-09-09 06:58:59 51°17.421 2°52.283 7.7 302 16.6 100960 46
2011-09-09 06:59:04 51°17.435 2°52.269 9.5 27 16.6 100960 46
2011-09-09 06:59:09 51°17.449 2°52.254 7.4 304 16.6 100960 46
2011-09-09 06:59:14 51°17.463 2°52.239 7.2 27 16.6 100960 45
2011-09-09 06:59:19 51°17.477 2°52.224 9.8 307 16.6 100960 45
2011-09-09 06:59:23 51°17.488 2°52.212 8.5 24 16.6 100960 46
2011-09-09 06:59:29 51°17.504 2°52.194 10.2 308 16.6 100960 46
2011-09-09 06:59:33 51°17.515 2°52.182 7 22 16.6 100950 45
2011-09-09 06:59:39 51°17.532 2°52.165 8.4 302 16.6 100950 45
2011-09-09 06:59:44 51°17.546 2°52.151 7.9 26 16.6 100960 46
2011-09-09 06:59:49 51°17.56 2°52.136 6.7 302 16.6 100960 46
2011-09-09 06:59:53 51°17.571 2°52.124 8.2 29 16.6 100960 45
2011-09-09 06:59:59 51°17.588 2°52.107 7.8 303 16.6 100960 45
2011-09-09 07:00:04 51°17.601 2°52.092 8.1 20 16.6 100960 45
2011-09-09 07:00:09 51°17.615 2°52.077 8.8 310 16.6 100960 45
2011-09-09 07:00:13 51°17.626 2°52.065 7.3 27 16.6 100960 44
2011-09-09 07:00:19 51°17.642 2°52.048 8.4 308 16.6 100960 44
2011-09-09 07:00:24 51°17.656 2°52.034 8.2 19 16.6 100960 45
2011-09-09 07:00:29 51°17.67 2°52.02 7.6 280 16.6 100960 45
2011-09-09 07:00:33 51°17.682 2°52.009 7.5 28 16.6 100960 44
2011-09-09 07:00:39 51°17.699 2°51.993 7.8 305 16.6 100960 44
2011-09-09 07:00:44 51°17.713 2°51.98 7.3 26 16.6 100950 45
2011-09-09 07:00:49 51°17.727 2°51.966 6.4 310 16.6 100950 45
2011-09-09 07:00:54 51°17.741 2°51.952 7.8 20 16.6 100960 45
2011-09-09 07:00:59 51°17.755 2°51.939 8.7 303 16.6 100960 45
2011-09-09 07:01:03 51°17.767 2°51.928 6.2 27 16.6 100960 45
2011-09-09 07:01:09 51°17.783 2°51.91 8.2 310 16.6 100960 45
2011-09-09 07:01:13 51°17.794 2°51.899 9.2 22 16.6 100960 46
2011-09-09 07:01:19 51°17.81 2°51.88 7.8 309 16.6 100960 46
2011-09-09 07:01:24 51°17.823 2°51.864 9.4 22 16.6 100960 45
2011-09-09 07:01:29 51°17.837 2°51.848 7 302 16.6 100960 45
2011-09-09 07:01:34 51°17.85 2°51.832 8.3 26 16.6 100950 45
2011-09-09 07:01:39 51°17.863 2°51.817 9.4 303 16.6 100950 45
2011-09-09 07:01:44 51°17.877 2°51.801 8.1 24 16.6 100950 46
2011-09-09 07:01:49 51°17.89 2°51.785 6.8 302 16.6 100950 46
2011-09-09 07:01:53 51°17.901 2°51.773 9.3 23 16.6 100960 45
2011-09-09 07:01:59 51°17.917 2°51.754 7.1 307 16.6 100960 45
2011-09-09 07:02:04 51°17.93 2°51.738 6.9 26 16.6 100950 44
2011-09-09 07:02:09 51°17.943 2°51.722 7.6 302 16.6 100950 44
2011-09-09 07:02:13 51°17.954 2°51.71 8.2 21 16.6 100960 46
2011-09-09 07:02:19 51°17.97 2°51.691 7 309 16.6 100960 46
2011-09-09 07:02:24 51°17.984 2°51.675 9.5 22 16.6 100960 46
2011-09-09 07:02:29 51°17.997 2°51.659 6.7 280 16.6 100960 46
2011-09-09 07:02:33 51°18.008 2°51.646 8.6 27 16.7 100970 45
2011-09-09 07:02:38 51°18.021 2°51.631 8.3 309 16.7 100970 45
2011-09-09 07:02:44 51°18.038 2°51.613 6.4 27 16.7 100960 45
2011-09-09 07:02:49 51°18.052 2°51.599 7.4 309 16.7 100960 45
2011-09-09 07:02:54 51°18.066 2°51.585 8.6 22 16.7 100970 43
2011-09-09 07:02:59 51°18.081 2°51.572 8.8 307 16.7 100970 43
2011-09-09 07:03:03 51°18.092 2°51.561 7.3 21 16.7 100960 45
2011-09-09 07:03:09 51°18.109 2°51.545 7.2 302 16.7 100960 45
2011-09-09 07:03:13 51°18.12 2°51.534 10.3 23 16.7 100970 45
2011-09-09 07:03:19 51°18.138 2°51.517 6.7 303 16.7 100970 45
2011-09-09 07:03:24 51°18.152 2°51.504 8.4 25 16.7 100960 46
2011-09-09 07:03:29 51°18.166 2°51.49 6.3 310 16.7 100960 46
2011-09-09 07:03:33 51°18.178 2°51.48 8.8 25 16.7 100960 46
2011-09-09 07:03:39 51°18.195 2°51.463 9.1 307 16.7 100960 46
2011-09-09 07:03:44 51°18.209 2°51.449 7 25 16.7 100960 45
2011-09-09 07:03:49 51°18.223 2°51.435 9.5 310 16.7 100960 45
2011-09-09 07:03:54 51°18.237 2°51.42 8.4 20 16.7 100970 46
2011-09-09 07:03:59 51°18.251 2°51.406 8.4 304 16.7 100970 46
2011-09-09 07:04:04 51°18.265 2°51.391 6.9 25 16.7 100960 45
2011-09-09 07:04:09 51°18.279 2°51.376 7.7 304 16.7 100960 45
2011-09-09 07:04:13 51°18.29 2°51.364 8.5 23 16.7 100960 46
2011-09-09 07:04:19 51°18.306 2°51.344 8 302 16.7 100960 46
2011-09-09 07:04:24 51°18.319 2°51.328 7 22 16.8 100960 47
2011-09-09 07:04:29 51°18.332 2°51.311 8.3 282 16.8 100960 47
2011-09-09 07:04:33 51°18.343 2°51.298 7.8 28 16.7 100970 47
2011-09-09 07:04:38 51°18.356 2°51.282 8.8 303 16.7 100970 47
2011-09-09 07:04:44 51°18.373 2°51.264 10.6 27 16.8 100960 45
2011-09-09 07:04:49 51°18.386 2°51.249 7.4 305 16.8 100960 45
2011-09-09 07:04:53 51°18.397 2°51.237 8.4 26 16.8 100960 46
2011-09-09 07:04:59 51°18.414 2°51.219 10.7 309 16.8 100960 46
2011-09-09 07:05:04 51°18.428 2°51.203 7.7 28 16.8 100960 45
2011-09-09 07:05:09 51°18.442 2°51.188 8 303 16.8 100960 45
2011-09-09 07:05:13 51°18.453 2°51.176 9.5 27 16.8 100960 46
2011-09-09 07:05:19 51°18.469 2°51.157 9.9 309 16.8 100960 46
2011-09-09 07:05:23 51°18.48 2°51.144 9.6 22 16.8 100960 46
2011-09-09 07:05:29 51°18.496 2°51.125 7.1 302 16.8 100960 46
2011-09-09 07:05:33 51°18.506 2°51.112 9.8 21 16.7 100960 44
2011-09-09 07:05:39 51°18.522 2°51.093 9.3 310 16.7 100960 44
2011-09-09 07:05:44 51°18.535 2°51.076 7.5 21 16.8 100960 46
2011-09-09 07:05:49 51°18.549 2°51.06 9.3 302 16.8 100960 46
2011-09-09 07:05:53 51°18.559 2°51.047 8.9 24 16.8 100960 46
2011-09-09 07:05:59 51°18.576 2°51.028 9.4 309 16.8 100960 46
2011-09-09 07:06:04 51°18.589 2°51.012 9.8 20 16.8 100960 46
2011-09-09 07:06:09 51°18.603 2°50.997 8.6 305 16.8 100960 46
2011-09-09 07:06:13 51°18.614 2°50.985 6.7 23 16.8 100960 44
2011-09-09 07:06:19 51°18.631 2°50.968 7.5 310 16.8 100960 44
2011-09-09 07:06:24 51°18.645 2°50.953 8.4 24 16.8 100960 46
2011-09-09 07:06:29 51°18.66 2°50.94 6.9 282 16.8 100960 46
2011-09-09 07:06:33 51°18.671 2°50.929 7.4 23 16.8 100960 46
2011-09-09 07:06:39 51°18.688 2°50.912 8 302 16.8 100960 46
2011-09-09 07:06:44 51°18.702 2°50.897 9.3 29 16.8 100960 46
2011-09-09 07:06:49 51°18.716 2°50.883 9.8 302 16.8 100960 46
2011-09-09 07:06:53 51°18.727 2°50.871 8.5 22 16.8 100960 44
2011-09-09 07:06:59 51°18.744 2°50.853 6.9 308 16.8 100960 44
2011-09-09 07:07:04 51°18.757 2°50.838 8.6 26 16.8 100960 46
2011-09-09 07:07:09 51°18.771 2°50.823 9.5 301 16.8 100960 46
2011-09-09 07:07:13 51°18.782 2°50.811 10.4 27 16.8 100960 45
2011-09-09 07:07:19 51°18.799 2°50.792 9.3 304 16.8 100960 45
2011-09-09 07:07:24 51°18.812 2°50.776 9.7 25 16.8 100960 45
2011-09-09 07:07:29 51°18.825 2°50.759 8 310 16.8 100960 45
2011-09-09 07:07:33 51°18.836 2°50.747 8.8 22 16.9 100960 45
2011-09-09 07:07:39 51°18.852 2°50.727 10.9 305 16.9 100960 45
2011-09-09 07:07:44 51°18.866 2°50.711 8.3 24 16.9 100960 45
2011-09-09 07:07:49 51°18.879 2°50.694 6.8 309 16.9 100960 45
2011-09-09 07:07:53 51°18.89 2°50.681 8.3 21 16.9 100950 45
2011-09-09 07:07:59 51°18.906 2°50.662 9.3 309 16.9 100950 45
2011-09-09 07:08:04 51°18.92 2°50.647 9.2 24 16.9 100950 45
2011-09-09 07:08:09 51°18.934 2°50.632 7.1 302 16.9 100950 45
2011-09-09 07:08:14 51°18.948 2°50.618 6.2 21 16.9 100960 43
2011-09-09 07:08:19 51°18.962 2°50.604 7.5 303 16.9 100960 43
2011-09-09 07:08:24 51°18.977 2°50.59 6.7 23 16.9 100960 46
2011-09-09 07:08:29 51°18.991 2°50.577 8 284 16.9 100960 46
2011-09-09 07:08:33 51°19.003 2°50.566 6.5 26 16.9 100960 45
2011-09-09 07:08:39 51°19.02 2°50.549 6.7 310 16.9 100960 45
2011-09-09 07:08:44 51°19.034 2°50.534 7 19 16.9 100960 45
2011-09-09 07:08:49 51°19.048 2°50.519 9.3 310 16.9 100960 45
2011-09-09 07:08:53 51°19.059 2°50.507 6.9 29 16.9 100960 45
2011-09-09 07:08:58 51°19.073 2°50.493 7.2 304 16.9 100960 45
2011-09-09 07:09:04 51°19.09 2°50.474 7.9 21 16.9 100960 46
2011-09-09 07:09:09 51°19.103 2°50.459 7.8 304 16.9 100960 46
2011-09-09 07:09:13 51°19.114 2°50.447 7.7 26 16.9 100970 45
2011-09-09 07:09:19 51°19.131 2°50.427 7.7 309 16.9 100970 45
2011-09-09 07:09:24 51°19.144 2°50.411 7.4 23 17 100970 45
2011-09-09 07:09:29 51°19.157 2°50.395 7.5 304 17 100970 45
2011-09-09 07:09:33 51°19.168 2°50.382 8.9 27 17 100960 44
2011-09-09 07:09:39 51°19.184 2°50.362 7.2 302 17 100960 44
2011-09-09 07:09:44 51°19.197 2°50.346 6.5 315 17 100960 45
2011-09-09 07:09:49 51°19.211 2°50.33 6.5 308 17 100960 45
2011-09-09 07:09:54 51°19.224 2°50.314 10.1 21 17 100960 45
2011-09-09 07:09:59 51°19.238 2°50.298 8.6 306 17 100960 45
2011-09-09 07:10:03 51°19.249 2°50.285 7.2 29 17 100970 46
2011-09-09 07:10:09 51°19.265 2°50.267 8.6 309 17 100970 46
2011-09-09 07:10:13 51°19.276 2°50.254 7.7 315 17 100960 45
2011-09-09 07:10:19 51°19.293 2°50.235 6.7 302 17 100960 45
2011-09-09 07:10:24 51°19.306 2°50.22 7 27 17 100960 45
2011-09-09 07:10:29 51°19.32 2°50.204 6.6 279 17 100960 45
2011-09-09 07:10:34 51°19.333 2°50.188 7 316 17 100960 46
2011-09-09 07:10:39 51°19.347 2°50.172 7.4 307 17 100960 46
2011-09-09 07:10:44 51°19.36 2°50.156 7.1 23 17 100960 45
2011-09-09 07:10:49 51°19.374 2°50.141 7.4 307 17 100960 45
2011-09-09 07:10:53 51°19.385 2°50.128 6.7 315 17 100970 44
2011-09-09 07:10:59 51°19.402 2°50.111 6.5 311 17 100970 44
2011-09-09 07:11:04 51°19.416 2°50.096 6.6 25 17 100960 46
2011-09-09 07:11:09 51°19.43 2°50.082 9 308 17 100960 46
2011-09-09 07:11:13 51°19.442 2°50.071 7.1 23 17 100960 44
2011-09-09 07:11:18 51°19.456 2°50.057 7 304 17 100960 44
2011-09-09 07:11:24 51°19.474 2°50.042 6.6 20 17 100970 44
2011-09-09 07:11:29 51°19.489 2°50.028 7.5 304 17 100970 44
2011-09-09 07:11:33 51°19.5 2°50.017 6.1 315 17.1 100970 45
2011-09-09 07:11:39 51°19.518 2°50 8.6 304 17.1 100970 45
2011-09-09 07:11:44 51°19.532 2°49.985 9.6 22 17 100970 46
2011-09-09 07:11:49 51°19.546 2°49.971 7.4 303 17 100970 46
2011-09-09 07:11:53 51°19.558 2°49.96 6.6 27 17 100970 44
2011-09-09 07:11:59 51°19.575 2°49.943 7.6 308 17 100970 44
2011-09-09 07:12:04 51°19.59 2°49.929 7 25 17 100970 46
2011-09-09 07:12:09 51°19.604 2°49.915 6.4 308 17 100970 46
2011-09-09 07:12:13 51°19.616 2°49.904 6.2 20 17 100970 45
2011-09-09 07:12:19 51°19.633 2°49.887 7.2 303 17 100970 45
2011-09-09 07:12:24 51°19.647 2°49.871 7.5 20 17 100970 45
2011-09-09 07:12:29 51°19.661 2°49.857 8.5 285 17 100970 45
2011-09-09 07:12:34 51°19.675 2°49.842 6.6 24 17 100970 44
2011-09-09 07:12:39 51°19.689 2°49.826 7.1 304 17 100970 44
2011-09-09 07:12:44 51°19.703 2°49.811 7.1 23 17 100970 44
2011-09-09 07:12:49 51°19.717 2°49.795 8.7 303 17 100970 44
2011-09-09 07:12:53 51°19.728 2°49.782 7.2 22 17 100960 44
2011-09-09 07:12:59 51°19.744 2°49.764 7.1 305 17 100960 44
2011-09-09 07:13:04 51°19.758 2°49.748 7.7 27 17 100970 45
2011-09-09 07:13:09 51°19.772 2°49.732 5.7 308 17 100970 45
2011-09-09 07:13:13 51°19.783 2°49.719 7.9 20 17 100960 45
2011-09-09 07:13:19 51°19.799 2°49.7 8.7 310 17 100960 45
2011-09-09 07:13:24 51°19.813 2°49.684 8.7 28 17 100970 44
2011-09-09 07:13:29 51°19.826 2°49.667 7.2 305 17 100970 44
2011-09-09 07:13:33 51°19.837 2°49.654 8.7 25 17 100970 44
2011-09-09 07:13:39 51°19.854 2°49.634 8.1 304 17 100970 44
2011-09-09 07:13:44 51°19.867 2°49.617 8.6 27 17 100970 46
2011-09-09 07:13:49 51°19.88 2°49.601 7 308 17 100970 46
2011-09-09 07:13:53 51°19.891 2°49.587 7.7 28 17 100960 44
2011-09-09 07:13:58 51°19.904 2°49.57 8.3 306 17 100960 44
2011-09-09 07:14:04 51°19.92 2°49.55 9.1 24 17 100970 44
2011-09-09 07:14:09 51°19.934 2°49.534 7.3 307 17 100970 44
2011-09-09 07:14:14 51°19.947 2°49.517 7.1 21 17 100960 45
2011-09-09 07:14:19 51°19.961 2°49.501 8.8 302 17 100960 45
2011-09-09 07:14:23 51°19.972 2°49.488 7.2 29 17 100970 46
2011-09-09 07:14:29 51°19.989 2°49.469 7.7 285 17 100970 46
2011-09-09 07:14:33 51°20 2°49.456 9.2 26 17.1 100960 45
2011-09-09 07:14:39 51°20.016 2°49.437 7.7 303 17.1 100960 45
2011-09-09 07:14:44 51°20.03 2°49.421 9.8 26 17 100970 46
2011-09-09 07:14:49 51°20.044 2°49.405 7.5 309 17 100970 46
2011-09-09 07:14:54 51°20.058 2°49.389 9.5 24 17 100970 45
2011-09-09 07:14:59 51°20.072 2°49.374 8.5 305 17 100970 45
2011-09-09 07:15:04 51°20.085 2°49.358 7.8 21 17 100970 45
2011-09-09 07:15:09 51°20.099 2°49.342 8.8 310 17 100970 45
2011-09-09 07:15:13 51°20.11 2°49.33 8.6 19 17 100960 45
2011-09-09 07:15:19 51°20.127 2°49.311 6.7 308 17 100960 45
2011-09-09 07:15:24 51°20.141 2°49.296 8.5 21 17 100970 46
2011-09-09 07:15:29 51°20.155 2°49.28 8.4 303 17 100970 46
2011-09-09 07:15:33 51°20.166 2°49.267 8.5 26 17 100970 46
2011-09-09 07:15:39 51°20.183 2°49.249 8.6 308 17 100970 46
2011-09-09 07:15:44 51°20.197 2°49.234 8.6 23 17 100970 46
2011-09-09 07:15:49 51°20.211 2°49.218 8.6 306 17 100970 46
2011-09-09 07:15:53 51°20.221 2°49.206 6.8 20 17 100970 44
2011-09-09 07:15:58 51°20.235 2°49.19 8.5 303 17 100970 44
2011-09-09 07:16:04 51°20.252 2°49.172 8.8 23 17 100980 46
2011-09-09 07:16:09 51°20.266 2°49.157 9.1 304 17 100980 46
2011-09-09 07:16:13 51°20.277 2°49.145 7.3 23 17 100960 43
2011-09-09 07:16:19 51°20.294 2°49.126 7 308 17 100960 43
2011-09-09 07:16:24 51°20.309 2°49.112 7.9 26 17 100970 44
2011-09-09 07:16:29 51°20.323 2°49.097 7.7 284 17 100970 44
2011-09-09 07:16:33 51°20.334 2°49.085 7.5 29 17 100970 45
2011-09-09 07:16:38 51°20.348 2°49.07 7.2 306 17 100970 45
2011-09-09 07:16:44 51°20.365 2°49.052 7.6 25 17 100970 46
2011-09-09 07:16:49 51°20.379 2°49.036 8.6 309 17 100970 46
2011-09-09 07:16:53 51°20.39 2°49.024 7.2 21 17 100960 45
2011-09-09 07:16:59 51°20.407 2°49.005 8.7 303 17 100960 45
2011-09-09 07:17:04 51°20.421 2°48.989 8.6 25 17 100960 44
2011-09-09 07:17:09 51°20.434 2°48.973 7.7 302 17 100960 44
2011-09-09 07:17:13 51°20.445 2°48.96 8.9 27 17 100960 45
2011-09-09 07:17:19 51°20.462 2°48.94 9.8 307 17 100960 45
2011-09-09 07:17:24 51°20.475 2°48.923 8.6 27 17 100960 46
2011-09-09 07:17:29 51°20.488 2°48.906 10.8 303 17 100960 46
2011-09-09 07:17:33 51°20.499 2°48.893 9.2 25 17 100960 44
2011-09-09 07:17:39 51°20.515 2°48.873 10.6 304 17 100960 44
2011-09-09 07:17:44 51°20.528 2°48.856 9.7 27 17 100970 46
2011-09-09 07:17:49 51°20.542 2°48.839 9.6 306 17 100970 46
2011-09-09 07:17:53 51°20.553 2°48.826 7.7 26 17 100970 44
2011-09-09 07:17:59 51°20.569 2°48.806 10.2 304 17 100970 44
2011-09-09 07:18:04 51°20.582 2°48.789 8.2 20 17 100960 44
2011-09-09 07:18:09 51°20.596 2°48.774 9.8 304 17 100960 44
2011-09-09 07:18:13 51°20.607 2°48.762 10 28 17 100970 45
2011-09-09 07:18:19 51°20.624 2°48.744 9.7 308 17 100970 45
2011-09-09 07:18:23 51°20.635 2°48.731 9.5 25 17 100960 45
2011-09-09 07:18:29 51°20.652 2°48.713 9.8 278 17 100960 45
2011-09-09 07:18:33 51°20.663 2°48.701 9.5 25 17 100960 45
2011-09-09 07:18:39 51°20.681 2°48.685 9.8 307 17 100960 45
2011-09-09 07:18:44 51°20.695 2°48.67 8.3 21 17 100960 45
2011-09-09 07:18:49 51°20.709 2°48.655 8.4 307 17 100960 45
2011-09-09 07:18:53 51°20.721 2°48.644 9.9 27 17 100960 44
2011-09-09 07:18:59 51°20.737 2°48.625 10.4 310 17 100960 44
2011-09-09 07:19:04 51°20.751 2°48.61 7.8 25 17 100960 46
2011-09-09 07:19:09 51°20.765 2°48.595 9.1 304 17 100960 46
2011-09-09 07:19:14 51°20.779 2°48.579 7.9 26 17 100960 45
2011-09-09 07:19:19 51°20.793 2°48.563 7.9 302 17 100960 45
2011-09-09 07:19:24 51°20.807 2°48.547 9.8 28 17 100960 44
2011-09-09 07:19:29 51°20.82 2°48.53 7.5 304 17 100960 44
2011-09-09 07:19:33 51°20.831 2°48.518 7.4 27 17 100960 45
2011-09-09 07:19:39 51°20.847 2°48.498 8.5 304 17 100960 45
2011-09-09 07:19:44 51°20.861 2°48.482 8.2 19 17 100970 45
2011-09-09 07:19:49 51°20.875 2°48.465 10.4 303 17 100970 45
2011-09-09 07:19:53 51°20.886 2°48.452 10 28 17 100960 45
2011-09-09 07:19:59 51°20.902 2°48.433 9.6 304 17 100960 45
2011-09-09 07:20:04 51°20.915 2°48.416 10.1 26 17 100960 45
2011-09-09 07:20:09 51°20.929 2°48.4 7.5 304 17 100960 45
2011-09-09 07:20:13 51°20.94 2°48.387 10.4 20 17 100960 45
2011-09-09 07:20:19 51°20.956 2°48.368 10.5 302 17 100960 45
2011-09-09 07:20:24 51°20.97 2°48.352 10.2 28 17 100960 45
2011-09-09 07:20:29 51°20.984 2°48.336 9 281 17 100960 45
2011-09-09 07:20:33 51°20.995 2°48.323 8.8 26 17 100960 45
2011-09-09 07:20:38 51°21.008 2°48.307 7.8 303 17 100960 45
2011-09-09 07:20:44 51°21.024 2°48.287 9.1 27 17 100970 46
2011-09-09 07:20:49 51°21.038 2°48.271 7.3 308 17 100970 46
2011-09-09 07:20:53 51°21.049 2°48.259 10.2 22 17 100960 46
2011-09-09 07:20:59 51°21.066 2°48.24 9.8 307 17 100960 46
2011-09-09 07:21:04 51°21.08 2°48.224 9.3 24 17 100960 45
2011-09-09 07:21:09 51°21.094 2°48.208 8.6 304 17 100960 45
2011-09-09 07:21:13 51°21.105 2°48.196 8.8 21 17 100960 45
2011-09-09 07:21:19 51°21.122 2°48.179 8.9 308 17 100960 45
2011-09-09 07:21:24 51°21.136 2°48.164 9.2 22 17 100970 45
2011-09-09 07:21:29 51°21.15 2°48.149 10.4 310 17 100970 45
2011-09-09 07:21:33 51°21.162 2°48.138 8 24 17 100970 43
2011-09-09 07:21:39 51°21.179 2°48.121 8.9 303 17 100970 43
2011-09-09 07:21:44 51°21.194 2°48.106 7.6 22 17 100970 46
2011-09-09 07:21:49 51°21.208 2°48.092 8.6 303 17 100970 46
2011-09-09 07:21:53 51°21.22 2°48.08 8.1 22 17 100970 45
2011-09-09 07:21:59 51°21.237 2°48.062 7.4 302 17 100970 45
2011-09-09 07:22:04 51°21.251 2°48.048 7.3 27 17 100970 46
2011-09-09 07:22:09 51°21.265 2°48.033 9.9 307 17 100970 46
2011-09-09 07:22:13 51°21.277 2°48.022 9.6 24 17 100960 46
2011-09-09 07:22:19 51°21.294 2°48.004 9 308 17 100960 46
2011-09-09 07:22:24 51°21.309 2°47.99 7.1 21 17.1 100970 45
2011-09-09 07:22:29 51°21.323 2°47.976 9.1 279 17.1 100970 45
2011-09-09 07:22:33 51°21.335 2°47.964 9 26 17 100970 44
2011-09-09 07:22:39 51°21.352 2°47.946 9.7 304 17 100970 44
2011-09-09 07:22:44 51°21.366 2°47.931 7.2 26 17 100960 45
2011-09-09 07:22:49 51°21.381 2°47.916 9.2 305 17 100960 45
2011-09-09 07:22:53 51°21.392 2°47.903 7.3 22 17 100960 44
2011-09-09 07:22:59 51°21.408 2°47.885 8.3 306 17 100960 44
2011-09-09 07:23:04 51°21.422 2°47.869 7.3 20 17 100960 45
2011-09-09 07:23:09 51°21.436 2°47.853 7.5 309 17 100960 45
2011-09-09 07:23:13 51°21.447 2°47.84 7.3 24 17.1 100970 44
2011-09-09 07:23:19 51°21.464 2°47.821 7.4 304 17.1 100970 44
2011-09-09 07:23:24 51°21.478 2°47.805 8.4 20 17.1 100970 44
2011-09-09 07:23:29 51°21.492 2°47.789 7.6 305 17.1 100970 44
2011-09-09 07:23:33 51°21.503 2°47.776 8.1 22 17.1 100970 45
2011-09-09 07:23:39 51°21.519 2°47.756 8.5 305 17.1 100970 45
2011-09-09 07:23:44 51°21.533 2°47.739 8.2 28 17.1 100970 45
2011-09-09 07:23:49 51°21.547 2°47.724 6.9 310 17.1 100970 45
2011-09-09 07:23:53 51°21.558 2°47.712 8.6 27 17.1 100960 44
2011-09-09 07:23:59 51°21.576 2°47.694 8 303 17.1 100960 44
2011-09-09 07:24:04 51°21.59 2°47.68 8.2 23 17.1 100970 45
2011-09-09 07:24:09 51°21.604 2°47.665 9.2 305 17.1 100970 45
2011-09-09 07:24:13 51°21.616 2°47.654 6.8 24 17.1 100960 43
2011-09-09 07:24:19 51°21.633 2°47.636 6.6 307 17.1 100960 43
2011-09-09 07:24:24 51°21.648 2°47.622 7.8 26 17.1 100960 45
2011-09-09 07:24:29 51°21.662 2°47.607 8.8 282 17.1 100960 45
2011-09-09 07:24:33 51°21.673 2°47.595 7.4 23 17.1 100970 46
2011-09-09 07:24:39 51°21.69 2°47.578 8.1 305 17.1 100970 46
2011-09-09 07:24:44 51°21.704 2°47.563 7.8 24 17.1 100970 45
2011-09-09 07:24:49 51°21.718 2°47.547 9.4 306 17.1 100970 45
2011-09-09 07:24:53 51°21.73 2°47.535 9.3 25 17.1 100970 46
2011-09-09 07:24:59 51°21.746 2°47.516 7.2 304 17.1 100970 46
2011-09-09 07:25:04 51°21.76 2°47.501 7.6 27 17.1 100970 46
2011-09-09 07:25:09 51°21.774 2°47.485 9 302 17.1 100970 46
2011-09-09 07:25:13 51°21.785 2°47.472 8.8 24 17.1 100960 46
2011-09-09 07:25:19 51°21.801 2°47.453 7.8 302 17.1 100960 46
2011-09-09 07:25:23 51°21.813 2°47.44 7.6 23 17.1 100960 45
2011-09-09 07:25:29 51°21.829 2°47.421 8.1 304 17.1 100960 45
2011-09-09 07:25:33 51°21.84 2°47.408 8.8 28 17.1 100970 46
2011-09-09 07:25:39 51°21.857 2°47.389 10.9 309 17.1 100970 46
2011-09-09 07:25:44 51°21.87 2°47.373 9.2 21 17.1 100960 46
2011-09-09 07:25:49 51°21.884 2°47.357 8.6 310 17.1 100960 46
2011-09-09 07:25:53 51°21.896 2°47.345 9.5 20 17.1 100960 46
2011-09-09 07:25:59 51°21.913 2°47.327 8.1 303 17.1 100960 46
2011-09-09 07:26:04 51°21.927 2°47.312 8.5 24 17.1 100960 46
2011-09-09 07:26:09 51°21.941 2°47.297 7.8 303 17.1 100960 46
2011-09-09 07:26:13 51°21.952 2°47.285 9 25 17.1 100960 45
2011-09-09 07:26:19 51°21.969 2°47.267 7.3 308 17.1 100960 45
2011-09-09 07:26:24 51°21.984 2°47.253 9.1 27 17.1 100960 46
2011-09-09 07:26:29 51°21.998 2°47.238 7.5 278 17.1 100960 46
2011-09-09 07:26:33 51°22.01 2°47.227 7.3 26 17.1 100970 45
2011-09-09 07:26:39 51°22.027 2°47.21 9.1 304 17.1 100970 45
2011-09-09 07:26:44 51°22.042 2°47.196 7.8 23 17.1 100970 45
2011-09-09 07:26:49 51°22.056 2°47.181 9.9 304 17.1 100970 45
2011-09-09 07:26:53 51°22.067 2°47.169 8.6 25 17.1 100960 45
2011-09-09 07:26:59 51°22.084 2°47.151 7.3 307 17.1 100960 45
2011-09-09 07:27:04 51°22.098 2°47.136 9 21 17.1 100960 45
2011-09-09 07:27:09 51°22.113 2°47.121 7.4 302 17.1 100960 45
2011-09-09 07:27:13 51°22.124 2°47.109 8.7 25 17.1 100960 45
2011-09-09 07:27:19 51°22.141 2°47.091 7.6 304 17.1 100960 45
2011-09-09 07:27:23 51°22.152 2°47.078 7.5 21 17.1 100960 45
2011-09-09 07:27:29 51°22.168 2°47.059 9.5 307 17.1 100960 45
2011-09-09 07:27:33 51°22.179 2°47.046 7.3 20 17.1 100960 45
2011-09-09 07:27:39 51°22.195 2°47.027 7.8 302 17.1 100960 45
2011-09-09 07:27:44 51°22.209 2°47.01 9.2 21 17.1 100960 46
2011-09-09 07:27:49 51°22.222 2°46.993 8.1 306 17.1 100960 46
2011-09-09 07:27:53 51°22.233 2°46.98 8.7 26 17.1 100960 45
2011-09-09 07:27:59 51°22.249 2°46.96 10.7 310 17.1 100960 45
2011-09-09 07:28:04 51°22.262 2°46.943 8.5 24 17 100960 46
2011-09-09 07:28:09 51°22.275 2°46.926 7.5 302 17 100960 46
2011-09-09 07:28:14 51°22.288 2°46.909 7.8 24 17 100960 45
2011-09-09 07:28:19 51°22.301 2°46.892 8.6 303 17 100960 45
2011-09-09 07:28:23 51°22.312 2°46.879 8.7 21 17 100960 44
2011-09-09 07:28:29 51°22.328 2°46.859 8.2 280 17 100960 44
2011-09-09 07:28:33 51°22.339 2°46.847 10.7 24 17 100960 45
2011-09-09 07:28:39 51°22.355 2°46.828 9.5 305 17 100960 45
2011-09-09 07:28:44 51°22.369 2°46.812 8.5 20 17 100960 46
2011-09-09 07:28:49 51°22.383 2°46.797 10.6 308 17 100960 46
2011-09-09 07:28:53 51°22.394 2°46.785 8.2 24 17 100960 45
2011-09-09 07:28:59 51°22.41 2°46.765 9.5 308 17 100960 45
2011-09-09 07:29:04 51°22.424 2°46.75 10.6 21 17 100960 45
2011-09-09 07:29:09 51°22.437 2°46.734 8.2 305 17 100960 45
2011-09-09 07:29:13 51°22.449 2°46.723 8.9 21 16.9 100960 45
2011-09-09 07:29:19 51°22.466 2°46.704 9.4 308 16.9 100960 45
2011-09-09 07:29:24 51°22.48 2°46.69 7.3 25 16.9 100960 45
2011-09-09 07:29:29 51°22.494 2°46.675 8.3 309 16.9 100960 45
2011-09-09 07:29:33 51°22.505 2°46.663 8.4 20 16.9 100960 44
2011-09-09 07:29:39 51°22.522 2°46.646 9.3 305 16.9 100960 44
2011-09-09 07:29:44 51°22.536 2°46.632 8.5 26 16.9 100960 45
2011-09-09 07:29:49 51°22.551 2°46.618 9.5 303 16.9 100960 45
2011-09-09 07:29:53 51°22.562 2°46.607 8.8 27 16.9 100950 45
2011-09-09 07:29:59 51°22.58 2°46.59 9.3 301 16.9 100950 45
2011-09-09 07:30:04 51°22.593 2°46.575 10 28 16.9 100960 45
2011-09-09 07:30:09 51°22.608 2°46.56 10.2 307 16.9 100960 45
2011-09-09 07:30:13 51°22.619 2°46.548 11.8 22 16.9 100960 45
2011-09-09 07:30:19 51°22.636 2°46.53 12.5 303 16.9 100960 45
2011-09-09 07:30:24 51°22.65 2°46.515 10.8 24 16.9 100960 45
2011-09-09 07:30:29 51°22.664 2°46.5 11.9 281 16.9 100960 45
2011-09-09 07:30:33 51°22.675 2°46.488 9.4 26 16.9 100960 45
2011-09-09 07:30:39 51°22.692 2°46.47 8.8 301 16.9 100960 45
2011-09-09 07:30:44 51°22.706 2°46.455 10.5 28 16.9 100950 45
2011-09-09 07:30:49 51°22.719 2°46.439 9.6 303 16.9 100950 45
2011-09-09 07:30:53 51°22.73 2°46.426 10.9 24 16.9 100950 44
2011-09-09 07:30:59 51°22.746 2°46.407 8.6 304 16.9 100950 44
2011-09-09 07:31:04 51°22.76 2°46.391 9.4 27 16.9 100950 45
2011-09-09 07:31:09 51°22.774 2°46.375 9.7 309 16.9 100950 45
2011-09-09 07:31:13 51°22.785 2°46.362 8.6 19 16.9 100950 45
2011-09-09 07:31:19 51°22.802 2°46.343 10.2 306 16.9 100950 45
2011-09-09 07:31:24 51°22.815 2°46.327 8.9 29 16.9 100950 45
2011-09-09 07:31:29 51°22.829 2°46.311 8.3 303 16.9 100950 45
2011-09-09 07:31:33 51°22.84 2°46.298 9.7 26 16.9 100950 44
2011-09-09 07:31:39 51°22.856 2°46.279 10.4 309 16.9 100950 44
2011-09-09 07:31:44 51°22.869 2°46.263 10 19 16.9 100950 44
2011-09-09 07:31:49 51°22.883 2°46.246 9.2 305 16.9 100950 44
2011-09-09 07:31:53 51°22.894 2°46.233 7.6 20 16.9 100960 44
2011-09-09 07:31:59 51°22.91 2°46.214 8.8 307 16.9 100960 44
2011-09-09 07:32:04 51°22.924 2°46.198 8.8 25 16.9 100950 44
2011-09-09 07:32:09 51°22.937 2°46.182 10.7 307 16.9 100950 44
2011-09-09 07:32:13 51°22.949 2°46.17 9.4 26 16.9 100960 44
2011-09-09 07:32:19 51°22.965 2°46.151 10.4 302 16.9 100960 44
2011-09-09 07:32:24 51°22.979 2°46.136 9.2 20 16.9 100950 45
2011-09-09 07:32:29 51°22.993 2°46.121 8.3 280 16.9 100950 45
2011-09-09 07:32:33 51°23.004 2°46.108 8.8 27 16.9 100960 45
2011-09-09 07:32:39 51°23.021 2°46.091 8.3 306 16.9 100960 45
2011-09-09 07:32:44 51°23.035 2°46.076 9.9 22 16.9 100950 44
2011-09-09 07:32:49 51°23.05 2°46.061 8.6 309 16.9 100950 44
2011-09-09 07:32:53 51°23.061 2°46.049 9.4 23 16.9 100950 44
2011-09-09 07:32:59 51°23.078 2°46.032 7.8 306 16.9 100950 44
2011-09-09 07:33:04 51°23.093 2°46.018 7.9 24 16.9 100960 45
2011-09-09 07:33:09 51°23.107 2°46.003 8.7 308 16.9 100960 45
2011-09-09 07:33:13 51°23.118 2°45.991 10.9 26 16.9 100960 45
2011-09-09 07:33:19 51°23.135 2°45.971 8.5 308 16.9 100960 45
2011-09-09 07:33:24 51°23.148 2°45.956 9.7 22 16.9 100960 45
2011-09-09 07:33:29 51°23.162 2°45.939 9.7 308 16.9 100960 45
2011-09-09 07:33:33 51°23.172 2°45.926 8.2 21 16.9 100960 45
2011-09-09 07:33:39 51°23.188 2°45.906 9.8 309 16.9 100960 45
2011-09-09 07:33:44 51°23.201 2°45.888 8.9 20 16.9 100960 44
2011-09-09 07:33:49 51°23.214 2°45.87 10.9 304 16.9 100960 44
2011-09-09 07:33:53 51°23.225 2°45.856 10.1 26 16.9 100960 45
2011-09-09 07:33:59 51°23.24 2°45.834 8.9 306 16.9 100960 45
2011-09-09 07:34:04 51°23.253 2°45.816 8.5 23 16.9 100960 44
2011-09-09 07:34:09 51°23.265 2°45.798 8.9 306 16.9 100960 44
2011-09-09 07:34:13 51°23.275 2°45.783 8.7 27 16.9 100960 44
2011-09-09 07:34:18 51°23.288 2°45.765 8.7 304 16.9 100960 44
2011-09-09 07:34:24 51°23.303 2°45.742 12 21 17 100950 45
2011-09-09 07:34:29 51°23.316 2°45.725 10.2 279 17 100950 45
2011-09-09 07:34:33 51°23.325 2°45.71 11.8 25 17 100950 45
2011-09-09 07:34:39 51°23.341 2°45.689 12 310 17 100950 45
2011-09-09 07:34:44 51°23.354 2°45.671 8.5 25 17 100950 45
2011-09-09 07:34:49 51°23.367 2°45.654 10.5 306 17 100950 45
2011-09-09 07:34:54 51°23.38 2°45.636 9.9 25 17 100950 43
2011-09-09 07:34:59 51°23.393 2°45.618 10.7 301 17 100950 43
2011-09-09 07:35:04 51°23.406 2°45.601 8.8 22 17 100950 45
2011-09-09 07:35:09 51°23.42 2°45.584 8.4 302 17 100950 45
2011-09-09 07:35:13 51°23.43 2°45.571 9.6 26 17 100960 44
2011-09-09 07:35:19 51°23.446 2°45.55 10 304 17 100960 44
2011-09-09 07:35:24 51°23.46 2°45.533 10.7 26 17 100950 45
2011-09-09 07:35:29 51°23.473 2°45.516 8.7 309 17 100950 45
2011-09-09 07:35:34 51°23.486 2°45.498 9.1 19 17 100960 44
2011-09-09 07:35:39 51°23.499 2°45.481 9.8 309 17 100960 44
2011-09-09 07:35:44 51°23.511 2°45.463 8.8 26 17 100950 45
2011-09-09 07:35:49 51°23.524 2°45.446 11.4 304 17 100950 45
2011-09-09 07:35:53 51°23.535 2°45.431 9.9 25 17 100960 44
2011-09-09 07:35:59 51°23.55 2°45.409 8.7 309 17 100960 44
2011-09-09 07:36:04 51°23.562 2°45.389 9 20 17 100960 44
2011-09-09 07:36:09 51°23.574 2°45.37 9.8 303 17 100960 44
2011-09-09 07:36:13 51°23.583 2°45.354 9.3 29 17 100960 44
2011-09-09 07:36:18 51°23.595 2°45.335 9.4 308 17 100960 44
2011-09-09 07:36:24 51°23.61 2°45.312 9.4 25 17 100960 44
2011-09-09 07:36:29 51°23.622 2°45.293 12.1 278 17 100960 44
2011-09-09 07:36:33 51°23.632 2°45.277 13.3 23 17 100960 44
2011-09-09 07:36:39 51°23.646 2°45.254 10.7 303 17 100960 44
2011-09-09 07:36:44 51°23.658 2°45.235 12.4 25 17 100960 45
2011-09-09 07:36:49 51°23.67 2°45.216 11 309 17 100960 45
2011-09-09 07:36:53 51°23.68 2°45.201 11.8 26 17 100950 45
2011-09-09 07:36:59 51°23.696 2°45.179 9.9 306 17 100950 45
2011-09-09 07:37:04 51°23.708 2°45.159 9.1 21 17 100950 44
2011-09-09 07:37:09 51°23.72 2°45.14 9.9 304 17 100950 44
2011-09-09 07:37:13 51°23.73 2°45.125 11.5 23 17 100950 44
2011-09-09 07:37:19 51°23.744 2°45.101 10.3 307 17 100950 44
2011-09-09 07:37:24 51°23.755 2°45.081 10.4 21 17 100960 43
2011-09-09 07:37:29 51°23.767 2°45.061 10.9 308 17 100960 43
2011-09-09 07:37:34 51°23.779 2°45.041 10.4 26 17 100960 43
2011-09-09 07:37:39 51°23.791 2°45.022 8.7 305 17 100960 43
2011-09-09 07:37:44 51°23.803 2°45.003 9.9 20 17 100950 44
2011-09-09 07:37:49 51°23.816 2°44.984 7.6 302 17 100950 44
2011-09-09 07:37:53 51°23.825 2°44.969 8.8 29 16.9 100950 44
2011-09-09 07:37:59 51°23.84 2°44.947 7.6 303 16.9 100950 44
2011-09-09 07:38:04 51°23.853 2°44.928 7.9 19 16.9 100950 45
2011-09-09 07:38:09 51°23.865 2°44.91 8.7 303 16.9 100950 45
2011-09-09 07:38:13 51°23.875 2°44.895 8.6 25 16.9 100950 44
2011-09-09 07:38:19 51°23.89 2°44.872 9.7 308 16.9 100950 44
2011-09-09 07:38:24 51°23.902 2°44.853 9.1 26 17 100960 45
2011-09-09 07:38:29 51°23.914 2°44.834 9.3 282 17 100960 45
2011-09-09 07:38:33 51°23.924 2°44.818 10.5 25 17 100950 45
2011-09-09 07:38:39 51°23.938 2°44.794 9.1 308 17 100950 45
2011-09-09 07:38:43 51°23.948 2°44.779 10.7 23 17 100950 45
2011-09-09 07:38:49 51°23.962 2°44.756 10.4 301 17 100950 45
2011-09-09 07:38:53 51°23.972 2°44.741 9.4 24 17 100960 44
2011-09-09 07:38:59 51°23.987 2°44.72 8.6 304 17 100960 44
2011-09-09 07:39:04 51°24 2°44.702 8.7 26 17 100950 44
2011-09-09 07:39:09 51°24.014 2°44.685 7.8 306 17 100950 44
2011-09-09 07:39:13 51°24.024 2°44.672 10.3 20 17 100950 44
2011-09-09 07:39:19 51°24.041 2°44.652 9.1 309 17 100950 44
2011-09-09 07:39:24 51°24.055 2°44.637 8.8 21 17 100950 44
2011-09-09 07:39:29 51°24.069 2°44.622 9.4 310 17 100950 44
2011-09-09 07:39:33 51°24.08 2°44.61 8.9 23 17 100960 43
2011-09-09 07:39:39 51°24.097 2°44.592 7.8 301 17 100960 43
2011-09-09 07:39:44 51°24.112 2°44.578 7.5 22 17 100950 44
2011-09-09 07:39:49 51°24.126 2°44.564 8.8 307 17 100950 44
2011-09-09 07:39:53 51°24.137 2°44.552 8.8 20 17 100950 45
2011-09-09 07:39:59 51°24.155 2°44.535 9.5 305 17 100950 45
2011-09-09 07:40:04 51°24.169 2°44.52 7.8 25 17 100960 44
2011-09-09 07:40:09 51°24.183 2°44.505 7.7 308 17 100960 44
2011-09-09 07:40:13 51°24.194 2°44.492 7.5 22 17 100950 43
2011-09-09 07:40:19 51°24.211 2°44.475 8.4 305 17 100950 43
2011-09-09 07:40:24 51°24.224 2°44.461 8.5 25 17 100950 44
2011-09-09 07:40:29 51°24.236 2°44.447 9.3 285 17 100950 44
2011-09-09 07:40:33 51°24.245 2°44.435 7.8 22 17 100960 45
2011-09-09 07:40:38 51°24.257 2°44.423 8.4 301 17 100960 45
2011-09-09 07:40:44 51°24.269 2°44.407 8.7 26 17 100960 45
2011-09-09 07:40:49 51°24.279 2°44.395 9.1 308 17 100960 45
2011-09-09 07:40:53 51°24.287 2°44.386 7.2 27 17 100960 44
2011-09-09 07:40:59 51°24.299 2°44.372 7.7 302 17 100960 44
2011-09-09 07:41:04 51°24.308 2°44.361 8.9 26 17 100960 44
2011-09-09 07:41:09 51°24.317 2°44.35 7.7 303 17 100960 44
2011-09-09 07:41:13 51°24.324 2°44.342 7.4 23 17 100960 43
2011-09-09 07:41:19 51°24.334 2°44.329 8.4 308 17 100960 43
2011-09-09 07:41:23 51°24.341 2°44.321 7.1 26 17 100960 44
2011-09-09 07:41:29 51°24.351 2°44.309 7.6 302 17 100960 44
2011-09-09 07:41:33 51°24.358 2°44.301 7.1 23 17 100960 44
2011-09-09 07:41:39 51°24.368 2°44.289 8.3 309 17 100960 44
2011-09-09 07:41:44 51°24.376 2°44.28 6.8 20 17 100960 45
2011-09-09 07:41:49 51°24.384 2°44.27 7 303 17 100960 45
2011-09-09 07:41:53 51°24.391 2°44.263 7.5 20 17 100960 43
2011-09-09 07:41:59 51°24.401 2°44.252 6.6 302 17 100960 43
2011-09-09 07:42:04 51°24.409 2°44.242 7 27 17 100960 45
2011-09-09 07:42:09 51°24.417 2°44.233 5.5 303 17 100960 45
2011-09-09 07:42:13 51°24.423 2°44.225 6.1 27 17 100970 43
2011-09-09 07:42:19 51°24.433 2°44.214 7.6 301 17 100970 43
2011-09-09 07:42:24 51°24.44 2°44.204 6.5 26 17 100970 44
2011-09-09 07:42:29 51°24.448 2°44.195 7.5 281 17 100970 44
2011-09-09 07:42:33 51°24.454 2°44.187 5.1 19 17 100960 44
2011-09-09 07:42:39 51°24.464 2°44.175 6.6 302 17 100960 44
2011-09-09 07:42:44 51°24.471 2°44.165 7.2 22 17 100960 44
2011-09-09 07:42:49 51°24.479 2°44.156 6.3 306 17 100960 44
2011-09-09 07:42:53 51°24.485 2°44.148 6.4 21 17 100960 43
2011-09-09 07:42:59 51°24.494 2°44.136 5.8 308 17 100960 43
2011-09-09 07:43:04 51°24.502 2°44.126 6.3 22 17 100960 43
2011-09-09 07:43:09 51°24.509 2°44.115 7.4 308 17 100960 43
2011-09-09 07:43:13 51°24.515 2°44.107 6.6 28 17 100960 45
2011-09-09 07:43:18 51°24.523 2°44.097 6.2 308 17 100960 45
2011-09-09 07:43:24 51°24.532 2°44.085 5.6 28 17 100960 45
2011-09-09 07:43:29 51°24.54 2°44.074 5.4 285 17 100960 45
2011-09-09 07:43:33 51°24.546 2°44.067 5.8 23 17 100960 43
2011-09-09 07:43:39 51°24.555 2°44.054 6.7 306 17 100960 43
2011-09-09 07:43:44 51°24.562 2°44.044 6.6 21 17 100970 44
2011-09-09 07:43:49 51°24.57 2°44.034 5.6 303 17 100970 44
2011-09-09 07:43:54 51°24.577 2°44.023 6.7 23 17 100960 45
2011-09-09 07:43:59 51°24.584 2°44.013 7.4 304 17 100960 45
2011-09-09 07:44:04 51°24.592 2°44.002 8.1 25 17 100970 45
2011-09-09 07:44:09 51°24.599 2°43.991 7.2 304 17 100970 45
2011-09-09 07:44:13 51°24.605 2°43.983 7.8 25 17 100960 44
2011-09-09 07:44:19 51°24.614 2°43.97 7.1 301 17 100960 44
2011-09-09 07:44:24 51°24.621 2°43.959 7.3 26 17 100960 44
2011-09-09 07:44:29 51°24.628 2°43.949 7.1 307 17 100960 44
2011-09-09 07:44:33 51°24.634 2°43.94 7.4 25 17 100960 44
2011-09-09 07:44:39 51°24.642 2°43.927 6.7 301 17 100960 44
2011-09-09 07:44:44 51°24.65 2°43.917 7.2 23 17 100960 43
2011-09-09 07:44:49 51°24.657 2°43.907 8.2 305 17 100960 43
2011-09-09 07:44:53 51°24.663 2°43.899 6.5 21 17 100960 44
2011-09-09 07:44:59 51°24.672 2°43.886 7.5 307 17 100960 44
2011-09-09 07:45:04 51°24.679 2°43.875 7.2 22 17 100960 45
2011-09-09 07:45:09 51°24.685 2°43.866 7.9 304 17 100960 45
2011-09-09 07:45:13 51°24.69 2°43.857 6.6 26 17 100960 43
2011-09-09 07:45:18 51°24.696 2°43.847 7 304 17 100960 43
2011-09-09 07:45:24 51°24.701 2°43.835 6.6 26 17 100960 44
2011-09-09 07:45:29 51°24.705 2°43.826 6.1 282 17 100960 44
2011-09-09 07:45:33 51°24.708 2°43.819 8.2 30 17 100960 43
2011-09-09 07:45:39 51°24.712 2°43.808 6.1 305 17 100960 43
2011-09-09 07:45:43 51°24.714 2°43.802 7.4 26 17 100960 45
2011-09-09 07:45:49 51°24.717 2°43.793 7 308 17 100960 45
2011-09-09 07:45:53 51°24.718 2°43.788 5.7 26 17 100960 43
2011-09-09 07:45:59 51°24.72 2°43.782 6.1 307 17 100960 43
2011-09-09 07:46:04 51°24.721 2°43.778 6.1 25 17 100960 45
2011-09-09 07:46:09 51°24.722 2°43.775 6.7 309 17 100960 45
2011-09-09 07:46:13 51°24.722 2°43.773 6.5 247 17 100960 45
2011-09-09 07:46:19 51°24.722 2°43.772 5.1 309 17 100960 45
2011-09-09 07:46:24 51°24.721 2°43.772 6 256 17 100960 44
2011-09-09 07:46:29 51°24.72 2°43.772 8 306 17 100960 44
2011-09-09 07:46:34 51°24.719 2°43.772 7 259 17 100960 43
2011-09-09 07:46:39 51°24.718 2°43.771 5.5 306 17 100960 43
2011-09-09 07:46:43 51°24.717 2°43.771 5.6 259 17 100960 44
2011-09-09 07:46:49 51°24.716 2°43.771 5.8 309 17 100960 44
2011-09-09 07:46:53 51°24.716 2°43.77 6.4 260 17 100970 45
2011-09-09 07:47:00 51°24.716 2°43.769 6.4 307 17 100970 45
2011-09-09 07:47:05 51°24.715 2°43.769 5.5 262 17 100970 44
2011-09-09 07:47:11 51°24.715 2°43.768 4.9 304 17 100970 44
2011-09-09 07:47:17 51°24.716 2°43.767 4.6 262 17 100970 45
2011-09-09 07:47:22 51°24.715 2°43.766 4.1 301 17 100970 45
2011-09-09 07:47:27 51°24.715 2°43.766 5.7 261 17 100970 44
2011-09-09 07:47:32 51°24.715 2°43.765 5.7 286 17 100970 44
2011-09-09 07:47:37 51°24.714 2°43.765 4 263 17 100970 43
2011-09-09 07:47:42 51°24.714 2°43.765 4.2 305 17 100970 43
2011-09-09 07:47:47 51°24.713 2°43.764 4.6 264 17 100970 45
2011-09-09 07:47:52 51°24.712 2°43.765 4.2 308 17 100970 45
2011-09-09 07:47:57 51°24.71 2°43.765 3.3 269 17 100970 45
2011-09-09 07:48:02 51°24.708 2°43.766 4.9 53 17 100970 45
2011-09-09 07:48:07 51°24.707 2°43.766 4.3 268 17 100980 43
2011-09-09 07:48:12 51°24.704 2°43.766 5.8 310 17 100980 43
2011-09-09 07:48:17 51°24.702 2°43.767 5.5 30 17 100970 42
2011-09-09 07:48:22 51°24.699 2°43.767 5.5 52 17 100970 42
2011-09-09 07:48:27 51°24.696 2°43.767 5.7 20 17 100970 45
2011-09-09 07:48:32 51°24.693 2°43.767 5.8 53 17 100970 45
2011-09-09 07:48:37 51°24.69 2°43.767 7.1 28 17.1 100970 46
2011-09-09 07:48:42 51°24.688 2°43.767 5.9 56 17.1 100970 46
2011-09-09 07:48:47 51°24.685 2°43.767 6.1 24 17.1 100970 44
2011-09-09 07:48:52 51°24.683 2°43.767 5.7 57 17.1 100970 44
2011-09-09 07:48:57 51°24.68 2°43.767 6.2 27 17 100970 45
2011-09-09 07:49:02 51°24.678 2°43.767 5.9 55 17 100970 45
2011-09-09 07:49:07 51°24.675 2°43.767 6.1 25 17 100970 43
2011-09-09 07:49:12 51°24.673 2°43.767 5.3 59 17 100970 43
2011-09-09 07:49:17 51°24.67 2°43.766 6 22 17 100970 45
2011-09-09 07:49:21 51°24.669 2°43.766 4.8 57 17 100970 45
2011-09-09 07:49:26 51°24.666 2°43.766 5.5 23 17 100970 43
2011-09-09 07:49:31 51°24.664 2°43.766 5.9 77 17 100970 43
2011-09-09 07:49:36 51°24.662 2°43.766 5.2 27 17 100970 44
2011-09-09 07:49:41 51°24.66 2°43.766 5.2 52 17 100970 44
2011-09-09 07:49:45 51°24.658 2°43.766 4.8 27 17 100970 44
2011-09-09 07:49:50 51°24.657 2°43.765 5.7 51 17 100970 44
2011-09-09 07:49:55 51°24.655 2°43.766 5.1 24 17 100970 43
2011-09-09 07:50:00 51°24.654 2°43.766 5.3 59 17 100970 43
2011-09-09 07:50:05 51°24.654 2°43.766 6.4 25 17 100970 44
2011-09-09 07:50:09 51°24.654 2°43.766 5.7 59 17 100970 44
2011-09-09 07:50:14 51°24.654 2°43.766 5.3 26 17 100970 43
2011-09-09 07:50:19 51°24.654 2°43.766 4.3 310 17 100970 43
2011-09-09 07:50:24 51°24.654 2°43.766 5.6 270 17 100970 43
2011-09-09 07:50:29 51°24.656 2°43.766 4 308 17 100970 43
2011-09-09 07:50:33 51°24.657 2°43.765 4.7 262 16.9 100960 42
2011-09-09 07:50:39 51°24.658 2°43.764 5.9 305 16.9 100960 42
2011-09-09 07:50:44 51°24.66 2°43.762 7 261 16.9 100970 45
2011-09-09 07:50:49 51°24.661 2°43.761 6 303 16.9 100970 45
2011-09-09 07:50:53 51°24.663 2°43.759 5.7 256 16.9 100970 42
2011-09-09 07:50:59 51°24.664 2°43.757 5.3 301 16.9 100970 42
2011-09-09 07:51:04 51°24.665 2°43.754 6.9 257 16.9 100960 44
2011-09-09 07:51:09 51°24.667 2°43.752 7.4 301 16.9 100960 44
2011-09-09 07:51:13 51°24.668 2°43.75 5.9 250 17 100970 45
2011-09-09 07:51:19 51°24.669 2°43.747 6.5 308 17 100970 45
2011-09-09 07:51:24 51°24.671 2°43.744 6.9 247 17 100960 44
2011-09-09 07:51:29 51°24.672 2°43.741 5.9 286 17 100960 44
2011-09-09 07:51:33 51°24.673 2°43.738 6.5 246 17 100960 44
2011-09-09 07:51:39 51°24.674 2°43.735 7 304 17 100960 44
2011-09-09 07:51:44 51°24.675 2°43.733 6.6 246 17 100970 44
2011-09-09 07:51:49 51°24.676 2°43.73 5.7 309 17 100970 44
2011-09-09 07:51:53 51°24.676 2°43.728 6 246 17 100970 44